• Join FlightAware (Why Join?)
  • Login
  • US Flag GB Flag 
02:03 EDT


 

Airport Tracker/Info


-or-


 

Live Flight TrackerFlight Track Log ✈ EJM826 ✈ 09-Oct-2013 ✈ KLAS - KHOU

Flight Track Log - Related Links

Times and Time Zones

All times are in EDT time to prevent confusion due to time zone crossing. See the EJM826 flight status page for this flight to view local times or setup timezone preferences in your user account.

Time Position Orientation Groundspeed Altitude Reporting Facility
EDT Latitude Longitude Course Direction KTS MPH feet Rate Location/Type
18:00 36.0767 -115.1706 273° West 163 188 3,600  Level Los Angeles Center
18:01 36.0783 -115.2181 272° West 170 196 5,200 2,220 Climbing Los Angeles Center
18:01 36.0522 -115.2681 237° Southwest 212 244 7,400 2,280 Climbing Los Angeles Center
18:02 36.0386 -115.2736 198° South 231 266 7,800 2,400 Climbing Los Angeles Center
18:02 35.9850 -115.2883 193° South 242 278 9,900 2,340 Climbing Los Angeles Center
18:03 35.9267 -115.2350 143° Southeast 286 329 12,100 2,640 Climbing Los Angeles Center
18:05 35.9242 -115.1253 92° East 316 364 15,400 2,400 Climbing Los Angeles Center
18:06 35.9164 -115.0103 95° East 331 381 17,100 1,860 Climbing Los Angeles Center
18:07 35.9183 -114.8872 89° East 352 405 19,300 1,860 Climbing Los Angeles Center
18:08 35.9194 -114.7606 89° East 365 420 21,000 1,740 Climbing Los Angeles Center
18:09 35.9214 -114.6061 89° East 374 430 22,900 1,620 Climbing Los Angeles Center
18:10 35.9219 -114.4744 90° East 382 440 24,400 1,200 Climbing Los Angeles Center
18:11 35.9217 -114.3386 90° East 393 452 25,500 1,140 Climbing Los Angeles Center
18:12 35.9222 -114.1708 90° East 408 470 27,100 1,320 Climbing Los Angeles Center
18:13 35.9228 -114.0281 90° East 415 478 28,600 1,320 Climbing Los Angeles Center
18:14 35.9203 -113.8856 91° East 417 480 29,900 1,440 Climbing Los Angeles Center
18:15 35.8864 -113.7236 104° East 409 471 31,600 1,500 Climbing Los Angeles Center
18:16 35.8583 -113.5911 105° East 402 463 33,000 1,260 Climbing Los Angeles Center
18:17 35.8333 -113.4639 104° East 408 470 34,300 1,260 Climbing Los Angeles Center
18:18 35.8050 -113.3275 104° East 412 474 35,700 1,020 Climbing Los Angeles Center
18:19 35.7758 -113.1894 105° East 415 478 36,400 720 Climbing Los Angeles Center
18:20 35.7386 -113.0142 105° East 434 499 37,300 900 Climbing Los Angeles Center
18:21 35.7086 -112.8644 104° East 445 512 38,300 840 Climbing Los Angeles Center
18:22 35.6767 -112.7147 105° East 449 517 39,100 960 Climbing Los Angeles Center
18:23 35.6439 -112.5667 105° East 448 516 40,400 840 Climbing Los Angeles Center
18:24 35.6125 -112.4189 105° East 447 514 40,900 240 Climbing Los Angeles Center
18:25 35.5689 -112.2789 111° Southeast 441 507 41,000  Climbing Los Angeles Center
18:26 35.5217 -112.1336 112° Southeast 456 525 41,000  Level Los Angeles Center
18:27 35.4711 -111.9858 113° Southeast 465 535 41,000  Level Albuquerque Center
18:28 35.4197 -111.8347 113° Southeast 475 547 41,000  Level Albuquerque Center
18:29 35.3617 -111.6878 116° Southeast 481 554 41,000  Level Albuquerque Center
18:30 35.2725 -111.5478 128° Southeast 481 554 41,000  Level Albuquerque Center
18:31 35.1942 -111.4161 126° Southeast 480 552 41,000  Level Albuquerque Center
18:32 35.1144 -111.2864 127° Southeast 478 550 41,000  Level Albuquerque Center
18:33 35.0353 -111.1575 127° Southeast 475 547 41,000  Level Albuquerque Center
18:34 34.9547 -111.0272 127° Southeast 478 550 41,000  Level Albuquerque Center
18:36 34.8586 -110.8722 127° Southeast 479 551 41,000  Level Albuquerque Center
18:37 34.7778 -110.7436 127° Southeast 477 549 41,000  Level Albuquerque Center
18:38 34.6917 -110.6019 126° Southeast 475 547 41,000  Level Albuquerque Center
18:39 34.6153 -110.4808 127° Southeast 474 545 41,000 360 Level Albuquerque Center
18:40 34.5386 -110.3592 127° Southeast 474 545 41,800 960 Climbing Albuquerque Center
18:41 34.4528 -110.2214 127° Southeast 462 532 43,000 540 Climbing Albuquerque Center
18:42 34.3828 -110.1114 128° Southeast 442 509 43,000  Level Albuquerque Center
18:43 34.2981 -109.9794 128° Southeast 442 509 43,000  Level Albuquerque Center
18:44 34.2247 -109.8647 128° Southeast 447 514 43,000  Level Albuquerque Center
18:45 34.1372 -109.7281 128° Southeast 456 525 43,000  Level Albuquerque Center
18:46 34.0619 -109.6089 127° Southeast 463 533 43,000  Level Albuquerque Center
18:47 33.9900 -109.4961 128° Southeast 469 540 43,000  Level Albuquerque Center
18:48 33.8925 -109.3467 128° Southeast 473 544 43,000  Level Albuquerque Center
18:49 33.8119 -109.2214 128° Southeast 473 544 43,000  Level Albuquerque Center
18:50 33.7300 -109.0969 128° Southeast 473 544 43,000  Level Albuquerque Center
18:51 33.6494 -108.9753 128° Southeast 468 539 43,000  Level Albuquerque Center
18:52 33.5689 -108.8528 128° Southeast 466 536 43,000  Level Albuquerque Center
18:53 33.4869 -108.7275 128° Southeast 471 542 43,000  Level Albuquerque Center
18:54 33.4300 -108.5753 114° Southeast 500 575 43,000 -240 Level Albuquerque Center
18:55 33.3931 -108.4108 105° East 510 587 42,600 -780 Descending Albuquerque Center
18:56 33.3483 -108.2142 105° East 509 586 41,400 -840 Descending Albuquerque Center
18:57 33.3111 -108.0506 105° East 509 586 41,000 -240 Descending Albuquerque Center
18:58 33.2736 -107.8892 105° East 506 582 41,000  Level Albuquerque Center
18:59 33.2406 -107.7442 105° East 505 581 41,000  Level Albuquerque Center
19:00 33.2031 -107.5814 105° East 506 582 41,000 -60 Level Albuquerque Center
19:01 33.1578 -107.3906 106° East 499 574 40,900  Descending Albuquerque Center
19:02 33.1206 -107.2297 105° East 500 575 41,000  Climbing Albuquerque Center
19:03 33.0808 -107.0681 106° East 503 579 41,000  Level Albuquerque Center
19:04 33.0428 -106.9028 105° East 508 585 41,000  Level Albuquerque Center
19:05 33.0028 -106.7344 106° East 517 595 41,000  Level Albuquerque Center
19:06 32.9631 -106.5700 106° East 518 596 41,000  Level Albuquerque Center
19:07 32.9233 -106.4042 106° East 518 596 41,000  Level Albuquerque Center
19:08 32.8825 -106.2381 106° East 520 598 41,000  Level Albuquerque Center
19:09 32.8419 -106.0717 106° East 522 601 41,000 -60 Level Albuquerque Center
19:10 32.7994 -105.9042 107° East 520 598 40,900  Descending Albuquerque Center
19:11 32.7583 -105.7386 106° East 522 601 41,000  Climbing Albuquerque Center
19:12 32.7094 -105.5419 106° East 519 597 41,000  Level Albuquerque Center
19:14 32.6686 -105.3781 106° East 518 596 41,000  Level Albuquerque Center
19:15 32.6264 -105.2133 107° East 520 598 41,000  Level Albuquerque Center
19:16 32.5850 -105.0486 107° East 520 598 41,000  Level Albuquerque Center
19:17 32.5367 -104.8636 107° East 525 604 41,000  Level Albuquerque Center
19:18 32.4947 -104.6986 107° East 526 605 41,000  Level Albuquerque Center
19:19 32.4528 -104.5378 107° East 518 596 41,000  Level Albuquerque Center
19:20 32.4069 -104.3633 107° East 518 596 41,000  Level Albuquerque Center
19:21 32.3636 -104.1978 107° East 518 596 41,000  Level Albuquerque Center
19:22 32.3192 -104.0322 108° East 523 602 41,000  Level Albuquerque Center
19:23 32.2811 -103.8847 107° East 526 605 41,000  Level Albuquerque Center
19:24 32.2367 -103.7206 108° East 526 605 41,000  Level Albuquerque Center
19:25 32.1842 -103.5242 107° East 527 606 41,000  Level Albuquerque Center
19:26 32.1403 -103.3619 108° East 524 603 41,000  Level Albuquerque Center
19:27 32.0956 -103.1989 108° East 524 603 41,000  Level Albuquerque Center
19:28 32.0539 -103.0461 108° East 525 604 41,000  Level Albuquerque Center
19:29 32.0081 -102.8847 108° East 522 601 41,000  Level Albuquerque Center
19:30 31.9536 -102.6886 108° East 522 601 41,000  Level Albuquerque Center
19:31 31.9161 -102.5525 108° East 531 611 41,000  Level Fort Worth Center
19:32 31.8725 -102.3889 107° East 531 611 41,000  Level Fort Worth Center
19:33 31.8267 -102.2275 108° East 531 611 41,000  Level Fort Worth Center
19:34 31.7786 -102.0611 109° East 531 611 41,000  Level Fort Worth Center
19:35 31.7367 -101.8978 107° East 531 611 41,000  Level Fort Worth Center
19:36 31.6903 -101.7344 108° East 531 611 41,000  Level Fort Worth Center
19:37 31.6414 -101.5736 110° East 531 611 41,000  Level Fort Worth Center
19:38 31.5922 -101.4106 109° East 526 605 41,000  Level Fort Worth Center
19:39 31.5472 -101.2478 108° East 531 611 41,000  Level Fort Worth Center
19:40 31.4958 -101.0847 110° East 531 611 41,000  Level Fort Worth Center
19:41 31.4481 -100.9247 109° East 531 611 41,000  Level Fort Worth Center
19:42 31.4025 -100.7622 108° East 526 605 41,000  Level Fort Worth Center
19:43 31.3489 -100.5886 110° East 527 606 41,000  Level Houston Center
19:44 31.2911 -100.3931 109° East 528 608 41,000  Level Houston Center
19:45 31.2411 -100.2306 110° East 531 611 41,000  Level Houston Center
19:46 31.1931 -100.0678 109° East 529 609 41,000  Level Houston Center
19:47 31.1428 -99.9053 110° East 530 610 41,000  Level Houston Center
19:48 31.0931 -99.7425 110° East 530 610 41,000  Level Houston Center
19:49 31.0536 -99.5775 106° East 530 610 41,000  Level Houston Center
19:50 31.0269 -99.4039 100° East 541 623 41,000  Level Houston Center
19:51 30.9967 -99.1986 100° East 535 616 41,000  Level Houston Center
19:52 30.9697 -99.0281 100° East 536 617 41,000  Level Houston Center
19:53 30.9436 -98.8553 100° East 536 617 41,000  Level Houston Center
19:54 30.9156 -98.6825 101° East 537 618 41,000  Level Houston Center
19:55 30.8886 -98.5111 100° East 535 616 41,000  Level Houston Center
19:56 30.8617 -98.3397 100° East 536 617 41,000  Level Houston Center
19:57 30.8339 -98.1692 101° East 533 613 41,000  Level Houston Center
19:58 30.8064 -97.9972 101° East 535 616 41,000 -180 Level Houston Center
20:00 30.7733 -97.7992 101° East 532 612 40,700 -1,500 Descending Houston Center
20:01 30.7453 -97.6311 101° East 530 610 37,900 -2,760 Descending Houston Center
20:02 30.7169 -97.4639 101° East 529 609 35,100 -2,760 Descending Houston Center
20:03 30.6894 -97.2992 101° East 524 603 32,300 -2,760 Descending Houston Center
20:04 30.6369 -97.1472 112° Southeast 509 586 29,400 -2,820 Descending Houston Center
20:05 30.5728 -97.0028 117° Southeast 505 581 26,500 -3,060 Descending Houston Center
20:06 30.4989 -96.8397 118° Southeast 489 563 23,100 -3,120 Descending Houston Center
20:07 30.4364 -96.7042 118° Southeast 477 549 20,200 -2,880 Descending Houston Center
20:08 30.3764 -96.5733 118° Southeast 462 532 17,300 -2,880 Descending Houston Center
20:08 30.3567 -96.5322 119° Southeast 446 513 16,300 -2,820 Descending Houston Center
20:09 30.3189 -96.4497 118° Southeast 439 505 14,400 -3,060 Descending Houston Center
20:09 30.2981 -96.4056 119° Southeast 431 496 13,200 -2,820 Descending Houston Center
20:10 30.2625 -96.3275 118° Southeast 430 495 11,500 -2,040 Descending Houston Center
20:10 30.2392 -96.2792 119° Southeast 418 481 11,100 -540 Descending Houston Center
20:11 30.2089 -96.2117 117° Southeast 410 472 11,000  Descending Houston Center
20:11 30.1686 -96.1881 153° Southeast 381 438 11,100 -300 Climbing Houston Center
20:12 30.1156 -96.1519 150° Southeast 381 438 10,700 -720 Descending Houston Center
20:12 30.0789 -96.1211 144° Southeast 386 444 10,400 -720 Descending Houston Center
20:13 30.0294 -96.0781 143° Southeast 385 443 10,000 -300 Descending Houston Center
20:13 29.9883 -96.0444 145° Southeast 389 448 10,100 -240 Climbing Houston Center
20:14 29.9639 -95.9844 115° Southeast 373 429 9,800 -1,020 Descending Houston Center
20:14 29.9483 -95.9456 115° Southeast 318 366 9,100 -1,500 Descending Houston Center
20:15 29.9300 -95.8933 112° Southeast 314 361 8,300 -1,680 Descending Houston Center
20:15 29.9175 -95.8575 112° Southeast 282 325 7,400 -2,160 Descending Houston Center
20:16 29.8981 -95.7933 109° East 281 323 6,100 -1,380 Descending Houston Center
20:16 29.8911 -95.7736 112° Southeast 278 320 6,000  Descending Houston Center
20:17 29.8753 -95.7131 107° East 264 304 6,100  Climbing Houston Center
20:17 29.8692 -95.6919 108° East 242 278 6,000 -120 Descending Houston Center
20:18 29.8556 -95.6439 108° East 234 269 6,000 60 Level Houston Center
20:18 29.8483 -95.6222 111° Southeast 224 258 6,100 -840 Climbing Houston Center
20:19 29.8297 -95.5544 108° East 226 260 5,000 -1,020 Descending Houston Center
20:20 29.8161 -95.5075 108° East 225 259 4,300 -900 Descending Houston Center
20:20 29.8089 -95.4872 112° Southeast 219 252 4,100 -420 Descending Houston Center
20:21 29.7844 -95.4519 129° Southeast 211 243 3,900 -540 Descending Houston Center
20:21 29.7706 -95.4339 132° Southeast 201 231 3,600 -1,020 Descending Houston Center
20:22 29.7472 -95.4028 131° Southeast 204 235 2,900 -1,020 Descending Houston Center
20:22 29.7325 -95.3856 135° Southeast 197 227 2,600 -1,140 Descending Houston Center
20:23 29.6992 -95.3439 133° Southeast 172 198 1,600 -960 Descending Houston Center
20:24 29.6753 -95.3144 133° Southeast 170 196 900 -900 Descending Houston Center
20:24 29.6708 -95.3089 133° Southeast 120 138 700 -720 Descending Houston Center
20:25 29.6533 -95.2892 136° Southeast 137 158 200 -600 Descending Houston Center
20:28 29.6454 -95.2789 119° Southeast  Level Estimated